Regional Weather Roundup
Issued by NWS

Home | Current Version | Previous Version | Text Only | Print | Product List | Glossary Off
Versions: 1 2 3 4 5 6 7 8 9 10 11 12 13 14 15 16 17 18 19 20 21 22 23 24 25 26 27 28 29 30 31 32 33 34 35 36 37 38 39 40 41 42 43 44 45 46 47 48 49 50

000
ASUS44 KMEG 181100
RWRTN
TENNESSEE HOURLY STATE WEATHER ROUNDUP
NATIONAL WEATHER SERVICE MEMPHIS TN
600 AM CDT SAT APR 18 2015

TNZ002-004-019-021-049-052-054-088>092-181200-
WEST TENNESSEE

CITY           SKY/WX    TMP DP  RH WIND       PRES   REMARKS
MEMPHIS INTL   CLOUDY    62  59  90 NE6       29.97F FOG
NWS MEMPHIS      N/A     58 N/A N/A MISG        N/A
JACKSON        FOG       54  52  93 CALM      30.00S VSB 3/4
DYERSBURG        N/A     57  46  67 E3        30.00F VSB 1/2
UNION CITY     CLOUDY    61  32  33 CALM      30.00S VSB 0
PARIS          CLOUDY    57  57 100 CALM      30.02S VSB 0
LEXINGTON      CLOUDY    54  52  94 CALM      30.00S VSB 1/4
SAVANNAH       CLOUDY    55  32  41 CALM      30.00F VSB 0
$$

TNZ008-025-027-028-033-062-065-066-181200-
NORTH MIDDLE TENNESSEE

CITY           SKY/WX    TMP DP  RH WIND       PRES   REMARKS
NASHVILLE      CLOUDY    56  55  97 CALM      30.03R
CLARKSVILLE    CLOUDY    54  54 100 CALM      30.03R FOG
COOKEVILLE     MOCLDY    54  52  94 CALM      30.01S
CROSSVILLE     FOG       53  51  93 CALM      30.05R VSB 3/4
$$

TNZ061-075-076-078-094-096-097-181200-
SOUTH MIDDLE TENNESSEE

CITY           SKY/WX    TMP DP  RH WIND       PRES   REMARKS
FAYETTEVILLE   CLEAR     54  54 100 E5        30.00F
TULLAHOMA        N/A     54  54 100 CALM      30.02S
WINCHESTER     MOCLDY    54  52  94 CALM      30.02S VSB 3/4
MCMINNVILLE    PTCLDY    55  55 100 N3        30.02S
COLUMBIA       CLOUDY    55  32  41 CALM      30.01R VSB 0
SHELBYVILLE    CLOUDY    55  55 100 CALM      30.02R VSB 1/4
$$

TNZ017-018-042-046-047-181200-
NORTHEAST TENNESSEE

CITY           SKY/WX    TMP DP  RH WIND       PRES   REMARKS
TRI CITIES     FOG       52  52 100 CALM      30.04S VSB 1/8
ELIZABETHTON   SUNNY     50  48  93 CALM      30.04F
$$

TNZ012-013-036-069-073-074-181200-
CENTRAL EAST TENNESSEE

CITY           SKY/WX    TMP DP  RH WIND       PRES   REMARKS
KNOXVILLE      FOG       58  57  97 NW6       30.01R VSB 3/4
OAK RIDGE      FOG       58  57  97 CALM      30.03R VSB 1/4
GATLINBURG     PTSUNNY   55  55 100 CALM      30.00S
$$

TNZ083-085-099-181200-
SOUTHEAST TENNESSEE

CITY           SKY/WX    TMP DP  RH WIND       PRES   REMARKS
CHATTANOOGA    FOG       59  59 100 CALM      30.02R VSB 1/4
$$

SKY/WX REPORTED AS FAIR MEANS FEW OR NO CLOUDS BELOW
12 THOUSAND FEET.




USA.gov is the U.S. government's official web portal to all federal, state and local government web resources and services.